Location: Krakow
(50.0212°N, 19.9423°E)
Time: 07:22:11
(UTC+02:00)

ITUPSAT 1 - Visible Passes

Search period start: 16 April 2024 00:00
Search period end: 26 April 2024 00:00
Orbit: 695 x 707 km, 98.5° (Epoch: 15 April)

Date Brightness Start Highest point End Pass type
(mag) Time Alt. Az. Time Alt. Az. Time Alt. Az.
16 Apr ? 00:41:15 10° NNW 00:43:43 14° NW 00:45:26 12° WNW visible
16 Apr ? 22:06:57 10° NNE 22:10:40 31° E 22:10:40 31° E visible
16 Apr ? 23:44:37 10° N 23:48:56 36° WNW 23:49:32 35° W visible
17 Apr ? 21:14:11 10° ENE 21:14:45 10° E 21:14:45 10° E visible
17 Apr ? 22:48:58 10° NNE 22:53:37 76° E 22:53:37 76° E visible
18 Apr ? 00:27:45 10° NNW 00:30:52 18° WNW 00:32:29 15° W visible
18 Apr ? 21:54:10 10° NE 21:57:42 25° E 21:57:42 25° E visible
18 Apr ? 23:31:27 10° N 23:36:00 46° WNW 23:36:34 44° W visible
19 Apr ? 22:35:59 10° NNE 22:40:38 58° E 22:40:38 58° E visible
20 Apr ? 00:14:23 10° N 00:18:00 22° WNW 00:19:30 19° W visible
20 Apr ? 21:41:28 10° NE 21:44:43 19° E 21:44:43 19° E visible
20 Apr ? 23:18:19 10° N 23:23:00 60° WNW 23:23:34 56° WSW visible
21 Apr ? 00:58:34 10° NW 00:59:45 11° NW 01:00:55 10° WNW visible
21 Apr ? 22:23:01 10° NNE 22:27:34 44° E 22:27:38 44° ESE visible
22 Apr ? 00:01:05 10° N 00:05:04 28° WNW 00:06:30 23° W visible
22 Apr ? 21:28:59 10° NE 21:31:41 15° E 21:31:42 15° E visible
22 Apr ? 23:05:13 10° NNE 23:09:58 79° WNW 23:10:34 66° SW visible
23 Apr ? 00:44:34 10° NNW 00:46:54 14° NW 00:49:13 10° W visible
23 Apr ? 22:10:06 10° NNE 22:14:26 34° E 22:14:37 34° ESE visible
23 Apr ? 23:47:49 10° N 23:52:07 35° WNW 23:53:29 29° W visible
24 Apr ? 21:16:59 10° ENE 21:18:25 11° E 21:18:41 11° E visible
24 Apr ? 22:52:08 10° NNE 22:56:54 80° ESE 22:57:32 66° S visible
25 Apr ? 00:30:59 10° NNW 00:34:00 17° NW 00:36:24 12° W visible
25 Apr ? 21:57:16 10° NE 22:01:15 26° E 22:01:36 26° ESE visible
25 Apr ? 23:34:36 10° N 23:39:07 44° WNW 23:40:27 35° WSW visible
